CAPE
26 41 169 219 183 251 439 319 540 854 1104 1460 1542 1787 1876 1661 1637 1564 1764 1968 1847 1972 1789 1599 1726 1672 1487 1166 1198 1167 1370 1266 1347 1297 1170 1267 1574 2399 2263 1422 2195 961 1452
0 45 329 563 773 723 1326 1387 1236 1274 1324 1543 1831 1792 1720 1720 1812 1815 1758 1914 2025 1941 1682 1857 1802 1761 1859 1927 1822 1784 1537 1900 2031 1678 1385 1426 1814 1850 2103 1492 1291 923 1289
19 283 450 1124 1158 1149 1808 1288 1285 1426 1627 1581 1678 1662 1713 1760 1790 1791 1744 1845 1771 1756 1797 1842 1905 1981 1950 1963 1943 1972 1972 1855 1849 1825 2548 850 1428 1567 1821 1704 1567 1452 1631
41 184 510 1725 1633 1287 1993 1891 1532 1724 1753 1792 1716 1672 1867 1781 1798 1675 1567 1662 1714 2244 2020 2120 1952 1860 2033 2073 1929 1749 1564 1573 1387 1719 1633 976 1105 2014 1950 1859 1844 1681 1958
200 386 848 1349 1924 1556 1755 1567 1536 1526 1773 1917 1860 1649 1724 1906 1733 1669 1654 1710 1731 2260 1954 2048 1744 1603 1734 1698 1597 1500 1556 1706 1667 1885 755 837 919 2127 2110 1766 1564 1402 1552
311 433 1355 1644 1741 1633 1637 1585 1639 1866 1910 2134 1958 2093 1835 1985 1893 1800 1806 1875 2019 2193 2238 1926 1967 2124 1507 1500 1377 1394 1510 1482 1695 881 460 674 740 927 917 796 760 777 825
483 653 1043 2413 2110 1798 1482 1592 1517 1686 1862 2041 1878 1701 2372 1780 1902 1802 1940 1949 2058 2046 1969 1428 1197 1247 1168 1085 1109 1097 1003 1432 1790 556 331 376 833 1114 849 897 916 924 959
429 496 964 2227 1954 1937 1634 1720 1820 1899 1935 2219 2274 2212 1824 2463 1562 1723 1838 1839 1872 2079 2092 1918 1834 1427 789 559 531 616 842 1325 1192 706 515 428 1149 966 819 874 984 1123 1315
443 544 964 1407 2096 1896 2019 1831 1917 1905 1899 1875 2364 2163 2102 1843 1364 1376 1748 1739 1731 1732 1929 2033 2016 2048 1760 1271 748 452 737 1038 1434 684 268 449 1131 865 770 958 1223 1478 1803
490 350 864 1100 1096 1518 1613 1968 1950 1842 1707 1919 2006 1924 2295 1550 1133 1215 2180 1977 1578 1623 1624 1774 1797 1896 2132 1922 1840 1446 1421 1609 792 251 233 707 1145 835 955 1204 1517 1785 2036
250 179 257 850 1458 1984 1947 2052 2044 2019 2021 2069 1642 1814 2040 1387 1305 1030 1849 1700 1105 1237 1565 1450 1675 1893 1831 2301 2497 2353 2290 2014 389 190 230 1290 1426 1268 1510 1653 1718 2097 2543
660 249 286 771 1104 1278 781 2163 2085 1488 1376 1398 1720 1538 1062 1850 777 298 1635 2309 1808 1915 2057 2460 2713 2397 1841 1777 1996 2855 2596 1181 427 293 275 1437 1492 1788 1897 2032 2254 2493 2953
434 6 445 64 519 1144 1597 1968 1578 1625 1454 1264 1323 2446 1871 1175 1512 1190 1712 1160 1392 2007 1426 2104 1729 1700 1560 1712 1804 2248 1615 495 391 369 619 1377 1213 1632 1942 2049 2217 2463 2982
945 831 807 443 758 1255 1730 1413 1752 1445 481 622 1220 2583 1818 41 748 1245 1805 2247 2310 1845 1960 1980 2272 2164 1921 1880 1117 404 676 400 492 419 605 1380 1491 1461 1673 1868 2008 2419 2980
963 937 1204 1625 1171 647 1 735 1081 1133 477 1182 1797 763 1375 1962 2368 2183 2506 2020 2916 1820 2093 2504 2528 2390 2004 1456 1177 817 552 735 618 612 477 1713 1722 2072 2001 1971 2168 2498 2828
782 1197 1318 1609 2135 1749 1400 2098 2032 1114 745 942 1920 2289 2600 2406 2383 2576 3048 2158 2102 2144 2708 2785 3063 2870 2504 1079 1283 892 969 966 1316 1159 774 863 1977 2207 2545 2725 2433 2260 2220
943 1263 1521 1491 1992 1129 2388 1792 696 331 1097 1578 1919 2224 2346 2437 2034 3867 2706 2535 3054 2711 2904 3012 2855 3014 1574 1215 1562 1537 998 1087 1164 1363 1790 1047 1088 2276 2445 2571 2249 1984 2499
971 1412 1215 1074 1417 1910 2019 2387 1303 1095 2213 853 1504 2177 1926 2396 2444 3285 2291 1141 906 1357 2430 2955 2686 2427 1434 1398 1647 1510 1289 1693 1909 1961 2124 1595 2087 1381 2252 2679 2541 2445 3100
834 1328 1365 1517 1540 1002 2816 1096 1794 1401 2428 528 1423 1147 2328 2328 2047 2619 638 479 617 385 958 1335 2326 2160 1644 1886 1123 1571 1637 1762 2122 1231 1792 2227 2079 2005 1984 2377 2851 3230 3394
1012 1226 1196 1810 1613 1152 2991 2567 1347 407 1369 2283 1822 1887 2897 2264 1968 678 986 124 0 232 383 2036 3979 3750 2621 1979 675 867 1352 1582 1712 1416 1285 1329 1583 2460 2505 3407 2998 3037 3211
823 958 2249 1929 1950 2400 2745 2406 2366 892 1644 2456 2986 2652 1977 1266 2223 1664 1344 181 97 268 926 3667 3399 3802 3094 2507 1241 600 535 432 366 386 424 561 1284 1541 1960 2266 2654 2465 1532
1008 1097 2087 2756 3045 2802 2879 2601 1825 1371 2490 589 2719 2657 2237 1583 2148 2234 1721 484 226 657 1758 2938 3719 2596 1462 1070 428 0 94 207 76 118 351 314 1295 1678 1912 1857 1465 2360 2014
1042 1602 1709 1998 2833 2884 2341 1678 1362 1862 1998 2805 1975 2539 2182 1672 2133 1583 3055 1582 1523 423 454 2615 2019 1046 136 371 705 238 64 31 0 6 61 41 490 1402 1718 1472 1640 1928 1388
855 1178 2042 2462 2833 2623 3093 2112 2186 1517 1967 1975 951 1296 2199 2514 3008 2174 2529 2988 2595 1495 1158 2428 2576 2033 1564 366 21 429 963 562 204 285 110 177 460 961 1700 1878 1509 1697 1309
566 723 2017 2373 2848 2964 2838 2867 2536 2390 997 643 2471 3089 3270 3116 2646 2985 2502 2543 2870 3122 3101 3023 2806 2965 2938 2679 1928 1062 894 1611 1349 452 1517 558 877 1043 181 1748 466 1531 2056
679 547 1368 2464 2502 2682 2620 2757 2550 1791 426 327 1787 2251 2106 2207 2412 2900 2959 2401 3084 3168 2833 3096 3123 3035 3950 3613 3270 2786 2147 1436 1514 1333 986 760 451 1376 964 1780 369 1293 2068
CIN
-11 -25 -9 -6 -10 -4 -1 -1 -5 -3 0 0 0 0 0 0 0 0 0 0 0 0 0 0 0 0 0 -6 -10 -15 -17 -29 -28 -21 -14 -4 -1 0 0 -2 -2 -17 0
0 -43 -12 0 -4 -3 0 -3 -1 -1 0 0 0 0 0 0 0 0 0 0 0 0 0 0 0 0 0 0 0 -7 -11 -1 0 -14 -19 -5 0 0 -1 -10 -13 -11 0
-61 -30 -17 -1 -2 -1 0 -3 -2 0 0 0 0 0 0 0 0 0 0 0 0 0 0 0 0 0 0 0 0 0 -1 -2 -2 -5 -5 -19 -3 -4 -3 -6 0 0 0
-42 -54 -18 0 0 0 0 0 0 0 0 0 0 0 0 0 -1 -3 0 0 0 0 0 0 0 0 0 0 -5 -13 -13 -8 -11 -4 -20 -5 -6 0 0 0 0 0 -1
-32 -6 -27 -7 0 0 0 0 0 0 0 0 0 -1 0 0 0 0 0 0 0 0 0 0 0 0 0 -5 -23 -32 -29 -18 -17 -20 -34 -41 -21 0 0 0 -2 -9 -11
-4 -41 -10 -2 0 -1 0 -1 0 0 0 0 0 0 0 0 0 0 0 0 0 0 0 0 0 0 -5 -20 -40 -51 -62 -58 -45 -16 -68 -75 -80 -57 -62 -82 -96 -108 -111
-6 -39 -12 0 0 0 0 -1 -2 0 0 0 0 0 0 0 0 0 0 0 0 0 0 -1 -14 -17 -33 -45 -53 -68 -74 -61 -23 -35 -120 -160 -94 -55 -114 -103 -106 -111 -108
-7 -32 -8 0 0 0 0 0 0 0 0 0 0 0 0 0 0 0 0 0 0 0 0 0 -6 -23 -89 -113 -131 -114 -95 -69 -4 -45 -123 -195 -79 -114 -151 -132 -116 -101 -75
-3 -22 -3 0 0 0 0 0 0 0 0 0 0 0 0 0 -12 -11 0 0 0 -2 -5 -6 -12 -13 -27 -64 -121 -144 -113 -76 -26 -102 -193 -233 -112 -164 -183 -147 -109 -73 -39
-7 -5 -2 -3 -1 -1 0 0 0 0 -1 -1 -3 -11 -11 -20 -26 -20 -6 -3 -11 -12 -25 -25 -33 -36 -39 -67 -84 -94 -89 -87 -78 -189 -263 -221 -142 -201 -175 -135 -97 -70 -54
-8 -88 -17 -7 0 -6 0 0 0 -2 -14 -8 -14 -9 -10 -20 -9 -24 -8 -23 -41 -40 -37 -55 -67 -62 -84 -79 -82 -84 -85 -80 -61 -201 -152 -171 -154 -158 -117 -97 -95 -75 -48
-31 -294 -138 -3 -4 -4 -9 -2 -6 -14 -28 -17 -21 -30 -127 -33 -30 -65 -31 -24 -40 -42 -45 -55 -46 -54 -86 -80 -107 -97 -86 -36 -119 -206 -261 -194 -173 -129 -106 -92 -88 -74 -43
-75 -24 -10 -204 -28 -10 -19 -12 -19 -29 -39 -9 -7 -8 -46 -100 -34 -29 -74 -72 -81 -68 -94 -69 -80 -93 -83 -85 -53 -54 -36 -100 -151 -220 -317 -219 -220 -176 -135 -123 -115 -96 -54
-34 -46 -30 -30 -12 -52 -14 -12 -19 -10 -17 -14 -59 -19 -57 -170 -19 -144 -49 -52 -52 -73 -82 -54 -17 -10 -17 -41 -17 -74 -50 -81 -138 -252 -262 -246 -210 -212 -180 -154 -142 -108 -68
-16 -27 -14 -14 -58 -22 -30 -120 -56 -45 -30 -12 -14 -55 -134 -28 -9 -10 -42 -92 -35 -53 -60 -67 -46 -21 -33 -16 -14 -30 -82 -68 -120 -184 -272 -215 -215 -178 -168 -161 -143 -113 -91
-6 -13 -15 -6 -4 -7 -29 -25 -33 -96 -31 -41 -7 -29 -8 -12 -14 -14 -16 -52 -24 -67 -27 -24 -31 -35 -43 -34 -18 -63 -72 -78 -67 -121 -197 -298 -217 -199 -174 -145 -143 -145 -134
-10 -33 -21 -28 -4 -67 -3 -14 -53 -174 -9 -31 -15 -11 -5 -42 -23 -11 -42 -57 -26 -23 -20 -12 -27 -41 -33 -36 -28 -18 -85 -106 -91 -71 -68 -142 -65 -206 -163 -152 -155 -161 -135
-3 -3 -33 -7 -10 -13 -10 -15 -74 -106 -9 -80 -30 -17 -2 -28 -11 -25 -43 -41 -37 -57 -63 -36 -52 -44 -34 -60 -56 -63 -87 -57 -56 -48 -58 -55 -42 -38 -190 -151 -133 -150 -98
-18 -5 -18 -11 -14 -56 -5 -65 -28 -58 -20 -88 -47 -42 -8 -11 -18 -29 -74 -36 -46 -166 -23 -44 -20 -18 -33 -26 -35 -49 -33 -57 -63 -37 -48 -39 -37 -49 -36 -158 -137 -104 -65
-5 -6 -19 -18 -34 -79 -7 -27 -68 -278 -102 -25 -35 -23 -7 -28 -10 -165 -19 -68 0 -28 -36 -29 -25 -21 -24 -19 -8 -28 -48 -30 -29 -45 -30 -28 -52 -34 -29 -68 -164 -99 -77
-8 -3 -7 -35 -39 -19 -5 -16 -17 -109 -43 -8 -10 -3 -75 -142 -11 -128 -116 -396 -115 -193 -13 -24 -16 -30 -57 -56 -182 -9 -76 -27 -8 -15 -57 -31 -20 -15 -24 -55 -43 -62 -149
-1 -5 -27 -10 -2 -6 -9 -26 -57 -82 -26 -60 -19 -2 -11 -6 -6 -17 -17 -18 -137 -9 -20 -15 -11 -52 -11 -19 -27 -11 -144 -55 -30 -7 -190 -24 -50 -39 -22 -38 -21 -52 -58
-5 -3 -46 -34 -3 -8 -7 -50 -103 -47 -30 -16 -33 -7 -7 -4 -2 -55 -28 -68 -79 -21 -12 -76 -78 -39 -6 -79 -3 -17 -68 -107 0 -7 -71 -402 -11 -83 -53 -39 -42 -74 -82
-6 -3 -14 -5 -10 -3 -3 -19 -21 -60 -23 -25 -58 -62 -21 -2 -5 -22 -2 -3 -26 -17 -11 -32 -30 -52 -17 -47 -39 -11 -23 -14 -13 -10 -35 -20 -42 -58 -58 -62 -22 -26 -146
-12 -3 -5 -7 -9 -4 -6 -7 -6 -5 -129 -207 -41 -18 -3 -6 -8 -6 -2 -1 -1 -7 -11 -15 -12 -16 -24 -23 -26 -20 -15 -56 -102 -66 -36 -41 -52 -154 -264 -58 -61 -76 -66
-11 -13 -6 -6 -9 -4 -3 -5 -17 -26 -118 -18 -31 -21 -19 -21 -23 -16 -4 -10 -4 -6 -9 -12 -11 -11 -11 -8 -24 -30 -34 -47 -34 -34 -41 -72 -33 -125 -133 -63 -87 -62 -128
Wind_Speed
nan nan 14 11 10 12 13 6 12 12 16 18 15 12 11 10 9 9 8 8 7 6 7 8 4 3 5 3 2 1 3 1 1 4 4 1 3 5 5 7 6 3 3
nan nan 8 10 13 20 17 18 21 17 16 14 12 11 10 10 7 7 7 9 9 9 8 7 4 2 3 1 2 5 5 5 7 7 5 2 2 2 3 5 5 3 3
nan 5 7 10 12 9 13 25 12 16 11 9 11 10 11 9 9 8 9 7 9 6 6 6 3 2 4 2 4 6 7 7 10 12 13 5 6 2 1 3 4 5 4
nan 9 5 3 6 12 17 10 9 12 10 11 11 10 10 9 7 8 6 10 8 5 3 4 2 3 3 4 6 10 11 12 11 16 17 7 6 4 5 6 6 4 5
8 11 6 5 1 10 14 5 5 6 6 8 8 11 10 9 9 9 10 9 7 5 1 1 2 1 2 4 9 14 15 15 18 20 10 9 8 4 6 8 7 1 5
12 3 1 2 2 2 2 7 7 5 7 10 12 10 10 9 8 9 9 8 9 5 1 4 4 3 2 6 10 16 19 21 25 12 6 3 4 7 5 4 3 2 1
8 8 3 3 5 5 3 2 4 5 9 9 11 10 10 9 8 8 7 7 7 5 2 10 4 4 3 8 13 18 22 25 19 9 5 6 9 7 5 4 2 2 4
12 10 7 6 5 6 5 4 6 7 8 9 10 9 9 8 7 7 6 6 5 3 3 12 6 4 6 11 15 22 24 26 8 4 5 7 9 8 6 6 6 7 8
12 10 5 4 3 4 5 6 6 7 7 8 8 9 7 5 4 4 4 4 3 2 1 10 7 9 11 14 18 25 23 25 17 9 7 11 13 12 12 10 10 11 12
5 8 4 2 3 3 0 5 3 6 5 3 3 4 4 3 2 1 2 4 6 4 2 9 12 15 16 19 23 24 25 24 19 5 9 14 14 12 12 11 11 11 10
8 3 10 2 1 4 2 2 2 4 3 2 3 7 6 2 3 3 5 5 8 6 18 15 17 19 21 23 26 26 24 19 13 9 11 14 12 12 11 11 11 11 10
6 8 22 18 5 5 4 2 2 3 7 10 9 3 28 11 10 4 5 7 10 13 20 18 22 22 24 21 20 25 22 13 7 8 10 12 12 12 12 12 10 10 9
2 nan 13 nan 13 3 2 10 8 9 12 11 15 13 8 16 17 15 12 12 13 17 14 18 22 20 26 20 19 19 15 12 8 7 9 11 14 15 15 13 11 9 9
7 2 7 2 12 3 11 9 8 10 8 11 13 21 20 nan 13 26 16 15 16 12 18 16 18 21 14 19 15 12 13 10 6 6 8 14 15 17 16 14 13 12 11
12 12 2 3 7 4 nan 9 12 14 10 9 9 18 21 19 21 20 20 22 18 14 16 18 15 16 12 13 10 11 7 8 5 6 8 18 18 19 18 18 16 14 13
6 2 5 2 4 9 16 10 16 21 9 10 2 6 17 13 16 18 19 19 20 16 17 15 14 14 13 8 10 4 4 6 6 6 9 13 22 22 22 20 19 16 12
5 7 4 4 3 7 12 14 9 25 9 15 13 10 19 23 19 23 22 18 23 22 22 18 19 17 8 5 8 9 6 1 4 6 10 13 15 21 19 22 20 13 11
2 0 5 1 2 11 10 18 16 18 12 10 14 13 16 16 23 26 21 28 32 28 37 18 17 13 8 5 4 3 3 2 4 7 7 5 10 15 23 22 16 13 12
2 1 7 2 6 11 11 16 9 18 18 15 19 16 16 19 22 23 21 21 20 27 33 33 15 15 12 7 4 5 7 4 7 11 11 15 18 16 14 23 20 17 16
5 3 5 4 4 11 10 8 15 18 20 17 22 20 17 24 20 27 18 14 nan 27 36 30 15 12 8 7 8 6 2 4 3 8 11 16 15 18 17 15 14 15 15
6 1 6 4 4 5 9 5 5 15 23 12 15 15 16 25 21 19 13 25 nan 16 27 12 11 13 8 12 14 15 21 12 12 10 10 26 11 12 14 14 11 11 15
6 2 8 5 3 5 8 10 7 14 16 14 15 18 21 17 17 19 13 16 25 24 31 18 13 9 11 19 11 nan nan 6 nan 9 24 9 23 9 6 9 12 12 11
6 4 6 7 4 8 4 7 9 13 15 10 10 11 14 12 8 7 4 15 14 15 14 14 11 7 11 22 17 9 nan nan nan nan nan nan 23 14 4 7 13 12 12
6 4 6 5 3 3 5 6 8 8 14 11 12 11 8 8 13 12 5 5 6 8 13 10 10 5 15 29 nan 10 7 16 17 8 17 22 18 8 4 5 10 8 14
9 4 8 5 5 4 4 5 6 5 16 20 14 3 6 9 10 10 4 5 3 7 9 9 2 5 5 9 9 13 17 11 5 8 15 11 19 2 7 6 5 9 12
11 7 10 9 8 5 5 4 3 9 8 14 8 4 3 3 2 4 2 1 7 6 6 4 7 7 6 4 4 4 1 8 2 8 8 7 5 8 5 8 8 9 13
Wind_Direction
nan nan 255 233 275 204 254 182 135 173 190 191 184 194 196 215 225 226 240 255 263 264 259 267 288 284 250 233 214 157 128 142 343 325 344 326 145 168 134 54 346 330 325
nan nan 314 241 243 210 246 220 205 192 198 178 184 193 205 213 228 240 230 238 251 242 258 273 248 262 304 324 59 74 42 40 28 9 354 18 104 144 187 232 269 1 324
nan 320 336 274 230 228 243 227 214 218 227 191 190 197 216 209 213 213 222 228 250 250 254 255 249 26 305 70 54 46 56 76 67 45 15 58 74 102 52 295 335 348 345
nan 37 22 269 246 223 241 226 215 222 208 206 193 196 207 210 224 224 221 217 214 206 223 245 319 11 46 69 69 80 83 83 74 58 86 55 53 58 14 357 353 25 26
338 328 351 27 253 232 239 173 185 198 183 190 196 214 213 224 225 228 221 208 197 151 114 151 343 50 72 66 99 102 91 85 69 65 90 63 58 38 16 27 19 48 165
81 320 195 55 304 263 219 185 175 182 202 216 214 217 217 230 222 225 213 195 183 187 184 82 82 48 60 91 96 93 99 107 101 77 49 78 62 36 48 66 78 110 174
323 318 345 360 295 307 227 214 243 241 239 222 224 220 231 242 235 228 216 203 205 203 255 174 101 94 92 93 93 94 99 99 92 62 39 44 65 59 60 69 80 68 42
344 306 337 344 308 281 287 270 247 236 236 236 234 225 233 245 244 236 214 207 197 179 315 105 98 84 85 82 85 94 100 105 102 61 72 74 58 45 40 45 41 41 42
320 310 353 8 311 301 271 267 260 257 250 248 238 244 246 246 252 240 221 199 161 128 19 89 98 87 79 79 80 84 92 95 90 65 43 67 55 52 53 54 55 57 55
36 294 341 64 41 359 228 256 267 267 259 264 290 305 321 292 270 215 183 156 113 95 108 100 87 86 80 75 80 85 88 95 92 72 81 70 56 54 52 52 57 56 55
207 98 173 87 344 198 276 256 283 310 334 40 70 60 44 113 107 67 176 116 104 71 93 78 81 85 86 88 83 79 85 88 81 76 76 47 49 49 44 42 41 39 37
257 180 176 136 332 39 208 56 111 146 132 122 99 200 133 133 144 137 103 100 93 87 84 85 90 87 88 93 91 85 89 94 89 76 75 38 40 44 39 34 34 26 20
275 nan 16 nan 124 185 175 120 146 136 123 135 126 154 101 177 146 125 129 118 111 96 108 99 102 102 89 83 88 81 88 81 79 78 47 31 36 36 35 31 22 14 5
327 352 63 61 77 182 94 110 115 119 140 110 147 174 150 nan 122 111 119 115 106 105 96 103 118 108 122 112 103 81 79 80 65 63 50 37 42 33 31 29 19 3 0
346 29 307 4 73 339 nan 91 118 129 139 171 200 189 130 127 141 142 146 129 119 114 112 109 112 111 105 102 108 102 140 130 26 37 39 31 35 37 29 24 13 360 1
11 295 283 259 69 44 75 83 174 145 136 148 172 58 106 139 134 141 124 116 128 114 115 137 126 112 110 141 117 128 70 82 134 356 7 22 28 25 20 10 6 359 358
327 318 319 53 239 128 94 97 311 87 155 167 170 153 135 156 143 142 142 138 138 148 148 140 126 127 133 156 175 129 158 132 64 68 28 16 9 16 4 6 2 351 350
16 246 46 0 38 80 106 104 133 141 152 163 139 132 132 123 149 141 160 173 164 162 144 122 121 132 153 179 135 108 75 344 15 55 53 1 -0 342 357 7 16 355 355
166 133 125 70 80 148 108 138 127 121 152 181 137 141 146 126 126 157 167 188 173 156 144 128 142 161 184 194 219 192 104 8 9 34 35 26 14 8 7 14 -0 358 4
298 120 117 143 138 74 131 141 166 137 117 134 151 140 148 133 140 166 156 197 nan 152 133 120 163 176 183 182 200 290 86 120 190 174 95 46 23 19 360 349 356 354 14
285 211 201 183 126 131 109 127 104 111 99 126 153 140 247 121 172 182 167 191 nan 139 102 130 153 180 196 235 228 221 195 170 195 168 123 131 56 21 357 348 346 359 2
305 258 214 193 140 117 137 145 135 109 121 122 147 155 152 170 177 231 181 282 84 136 120 165 166 207 231 222 231 nan nan 211 nan 189 194 118 95 22 23 344 0 340 351
313 290 219 221 180 118 140 117 113 125 125 153 144 150 160 176 185 280 312 311 23 267 119 150 202 226 272 248 200 342 nan nan nan nan nan nan 88 77 30 35 342 343 352
303 309 280 270 290 102 140 126 136 137 141 144 131 175 178 156 179 167 234 251 292 11 74 212 216 240 268 283 nan 22 114 351 18 18 67 74 84 63 86 43 348 329 336
285 279 273 249 258 176 169 163 196 201 199 136 142 172 180 170 164 150 199 185 145 154 184 196 241 265 268 309 33 350 27 35 221 2 60 46 55 20 358 30 348 355 325
277 274 270 259 253 198 186 184 211 221 345 102 94 142 135 122 118 111 145 285 227 201 219 186 222 212 230 303 3 151 295 45 18 37 49 73 12 21 38 19 349 342 351